Regional Weather Roundup
Issued by NWS

Home | Current Version | Previous Version | Graphics & Text | Print | Product List | Glossary On
Versions: 1 2 3 4 5 6 7 8 9 10 11 12 13 14 15 16 17 18 19 20 21 22 23 24 25 26 27 28 29 30 31 32 33 34 35 36 37 38 39 40 41 42 43 44 45 46 47 48 49 50
000
ASUS43 KMPX 010610
RWRMN
WEATHER ROUNDUP FOR MINNESOTA
NATIONAL WEATHER SERVICE TWIN CITIES/CHANHASSEN MN
100 AM CDT TUE SEP 01 2015


NOTE: "FAIR" INDICATES FEW OR NO CLOUDS BELOW 12,000 FEET WITH NO
SIGNIFICANT WEATHER AND/OR OBSTRUCTIONS TO VISIBILITY. N/A MEANS
CURRENT SKY AND/OR WEATHER CONDITIONS ARE NOT AVAILABLE.

MNZ060>063-068>070-010700-
   Twin Cities Metro

CITY           SKY/WX    TMP DP  RH WIND       PRES   REMARKS
TWIN CITIES    MOCLDY    76  70  82 S7        29.92R
6HR MIN TEMP:  76; 6HR MAX TEMP:  83;

ST PAUL        MOCLDY    73  70  90 S8        29.92R
CRYSTAL        FAIR      75  70  84 S6        29.90S
BLAINE         FAIR      75  73  94 S6        29.91S
LAKEVILLE      FAIR      66  66 100 CALM      29.93S FOG
EDEN PRAIRIE   FAIR      72  69  90 S5        29.91S FOG
6HR MIN TEMP:  72; 6HR MAX TEMP:  81;

SOUTH ST PAUL  FAIR      74  70  88 S7        29.92S
LAKE ELMO      FAIR      72  70  94 S6        29.94R
$$
MNZ001>005-007-008-013>017-022>024-027-028-010700-
   Northwest Minnesota

CITY           SKY/WX    TMP DP  RH WIND       PRES   REMARKS
BEMIDJI        FAIR      65  64  95 W5        29.89S
HALLOCK        FAIR      54  46  76 CALM      29.83S
ROSEAU         FAIR      59  54  82 SW8       29.85R
WARROAD        FAIR      59  55  88 SW6       29.85R
THIEF RVR FALL FAIR     N/A N/A N/A S3        29.87R
CROOKSTON      FAIR      57  54  88 S5        29.88R
FOSSTON        FOG       57  55  94 S6        29.90R VSB 1
DETROIT LAKES  FAIR      64  63  94 CALM      29.92S
MOORHEAD       FAIR      63  61  94 CALM      29.89S FOG
PARK RAPIDS    FAIR      64  62  93 NW5       29.90R FOG
MAHNOMEN       FAIR      59  59  97 S3        29.90R
$$
MNZ006-009>011-018-025>026-010700-
   North Central Minnesota

CITY           SKY/WX    TMP DP  RH WIND       PRES   REMARKS
BAUDETTE       FAIR      62  58  86 W7        29.84S
FLAG ISLAND    FAIR      66  55  68 SW8       29.81R
INTL FALLS     FAIR      63  62  97 SW3       29.85R
6HR MIN TEMP:  62; 6HR MAX TEMP:  72;

WASKISH        FAIR      64  63  94 SW5       29.87S
BIG FORK         N/A     64  63  94 CALM      29.88R FOG
LONGVILLE      FAIR      66  64  94 CALM      29.89R FOG
GRAND RAPIDS     N/A     72  66  83 CALM      29.89R
CRANE LAKE     FAIR      61  61 100 NE1       29.87R
ORR            FAIR      68  63  83 CALM      29.85R
COOK           FAIR      68  66  94 CALM      29.88R
WALKER         FAIR      63  63  99 W5        29.89R
$$
MNZ012-019>021-037-010700-
   Northeast Minnesota

CITY           SKY/WX    TMP DP  RH WIND       PRES   REMARKS
DULUTH         FAIR      71  68  90 SW9       29.89R
6HR MIN TEMP:  71; 6HR MAX TEMP:  77;

ELY            FAIR      72  66  83 SW8       29.87S
HIBBING        MOCLDY    71  67  87 CALM      29.88R
EVELETH        FAIR     N/A N/A N/A CALM      29.89S
DULUTH HARBOR  MOCLDY    72  70  94 CALM      29.87R
TWO HARBORS    FAIR      72  66  83 W3        29.86S HAZE
SILVER BAY     FAIR      70  66  88 CALM      29.86S FOG
GRAND MARAIS     N/A     58  56  93 CALM      29.85S
G MARAIS ARPRT MOCLDY    68  64  88 SW3       29.91R FOG
$$
MNZ029>031-032-039>041-046>048-054>057-064-010700-
   West Central Minnesota

CITY           SKY/WX    TMP DP  RH WIND       PRES   REMARKS
FERGUS FALLS   FAIR      66  66 100 NW8       29.90R FOG
WHEATON        FAIR      64  63  94 CALM      29.90F
MORRIS         FAIR      70  66  88 NW3       29.89R
ALEXANDRIA     FAIR      70  67  90 CALM      29.91S
ELBOW LAKE     FAIR      67  66  96 CALM      29.90R
WADENA         FAIR      64  64 100 CALM      29.90R FOG
GLENWOOD       FAIR      70  66  88 CALM      29.91S
APPLETON       FAIR      70  64  83 CALM      29.89R
BENSON         FAIR      68  64  88 CALM      29.89S
ORTONVILLE     FAIR      72  66  83 NW2       29.90R
MADISON        FAIR      70  66  88 CALM      29.89F
WILLMAR        FAIR      72  70  94 CALM      29.92R
$$
MNZ033>034-036-042>043-049>051-058-059-010700-
   Central Minnesota

CITY           SKY/WX    TMP DP  RH WIND       PRES   REMARKS
ST CLOUD       MOCLDY    70  68  93 S5        29.90R
6HR MIN TEMP:  70; 6HR MAX TEMP:  79;

SAUK CENTRE    FAIR      70  68  94 CALM      29.91R
PAYNESVILLE    FAIR      72  67  85 SE7       29.91S
AITKIN         FAIR      73  66  78 S5        29.88R
PINE RIVER     FAIR      70  68  94 CALM      29.92R
BRAINERD       FAIR      71  67  87 S6        29.89R
STAPLES        FAIR      66  66 100 CALM      29.90R
LONG PRAIRIE   FAIR      70  68  94 S5        29.91R
LITTLE FALLS   FAIR      70  64  83 CALM      29.89S
LITCHFIELD     FAIR      72  70  94 CALM      29.92R
BUFFALO        FAIR      71  66  84 S3        29.92R
MAPLE LAKE     FAIR      72  69  89 S3        29.92R
$$
MNZ037-044-045-052-053-010700-
   East Central Minnesota

CITY           SKY/WX    TMP DP  RH WIND       PRES   REMARKS
PRINCETON      FAIR      73  70  88 S3        29.91R
MORA           FAIR      70  66  88 CALM      29.91S
CAMBRIDGE      FAIR      73  64  73 S5        29.89R
RUSH CITY      FAIR      69  67  93 S5        29.91R
MOOSE LAKE     FAIR      70  68  94 SW5       29.87S
HINCKLEY       FAIR      68  68 100 S3        29.90S
CLOQUET        FAIR      72  66  83 SW5       29.89S
MCGREGOR       FAIR      72  68  88 S5        29.89R
$$
MNZ071>073-080-081-089-090-097-098-010700-
   Southwest Minnesota

CITY           SKY/WX    TMP DP  RH WIND       PRES   REMARKS
MONTEVIDEO     FAIR      72  66  83 SW5       29.91S
GRANITE FALLS  FAIR      68  67  97 CALM      29.92R
CANBY          FAIR      73  67  80 CALM      29.91S
MARSHALL       FAIR      73  64  73 SW9       29.92S
REDWOOD FALLS  FAIR      70  67  90 SW9       29.91R
OLIVIA         MOCLDY    68  63  83 S5        29.91R
PIPESTONE      FAIR      72  68  88 S5        29.94S
WINDOM         FAIR      70  64  83 CALM      29.94S
WORTHINGTON    FAIR      68  64  88 S7        29.94S
JACKSON        FAIR      68  64  88 S5        29.95S
TRACY          FAIR      71  68  90 SW8       29.92S
SLAYTON        FAIR      69  67  94 CALM      29.95R
$$
MNZ065>067-074>077-082>085-091>093-010700-
   South Central Minnesota

CITY           SKY/WX    TMP DP  RH WIND       PRES   REMARKS
MANKATO        FAIR      70  64  83 S6        29.93S
NEW ULM        FAIR      70  66  88 S8        29.92S
ST JAMES       FAIR      68  66  94 S6        29.94S
FAIRMONT       FAIR      64  59  82 S5        29.94S
GLENCOE        FAIR      71  69  93 S5        29.91S
FARIBAULT      FAIR      70  68  94 CALM      29.95R FOG
OWATONNA       FAIR      72  66  83 S5        29.95S FOG
WASECA         FAIR      64  63  94 S3        29.96S FOG
ALBERT LEA     FAIR      70  68  94 CALM      29.96S FOG
$$
MNZ078>079-086>088-094>096-010700-
   Southeast Minnesota

CITY           SKY/WX    TMP DP  RH WIND       PRES   REMARKS
ROCHESTER      MOCLDY    71  69  93 S7        29.97S FOG
6HR MIN TEMP:  71; 6HR MAX TEMP:  78;

RED WING       FAIR      72  70  94 CALM      29.92S FOG
STANTON        FAIR      70  66  89 CALM      29.93R FOG
DODGE CENTER   FAIR      70  68  94 S7        29.97R FOG
WINONA         FAIR      73  70  88 CALM      29.95S
AUSTIN         FAIR      72  70  94 S5        29.97R FOG
PRESTON        FAIR      71  69  92 SW3       29.98S FOG
$$
ABBREVIATIONS USED IN REMARKS
   TC - TEMPERATURES IN CELSIUS
  WCI - WIND CHILL INDEX
   HX - HEAT INDEX
  VSB - VISIBILITY
$$



USA.gov is the U.S. government's official web portal to all federal, state and local government web resources and services.